Wind_Speed
10 9 9 9 10 10 11 12 13 14 15 16 16 16 17 18 18 17 17 18 17 15 15 16 16 14 8 6 13 12 12 8 6 20 21 22 21 21 19 22 20 14 18 8 11 10 13
13 12 12 11 12 12 13 14 15 16 16 17 18 18 18 17 18 18 17 17 18 17 15 14 14 14 6 11 6 8 11 18 14 19 23 24 20 20 20 22 18 12 21 19 13 12 11
14 12 12 11 11 11 12 14 15 15 16 18 18 19 19 18 18 17 17 17 16 16 15 13 13 12 10 17 8 7 3 5 13 20 25 24 22 18 20 18 18 18 13 15 17 15 12
15 16 15 14 13 14 15 15 16 17 18 19 20 19 19 20 20 19 16 15 15 14 14 14 11 10 10 12 11 12 11 9 10 18 23 21 20 20 23 17 12 17 18 18 19 20 16
14 16 17 18 18 18 18 18 20 22 22 22 23 23 23 21 20 19 17 15 12 12 12 12 10 4 9 8 6 5 12 14 9 14 18 19 20 21 22 16 15 18 18 22 21 20 14
16 16 17 17 18 20 21 21 21 21 23 24 24 24 24 23 23 22 18 13 9 8 9 8 8 7 9 6 4 6 5 11 13 16 17 16 17 16 17 17 18 22 21 22 21 16 16
15 15 16 17 19 20 20 21 22 23 24 25 26 25 24 22 20 22 22 9 7 3 5 10 11 15 14 7 8 4 7 11 15 17 19 24 16 21 25 24 24 24 24 24 20 16 19
16 17 17 17 17 18 19 20 21 22 23 23 25 27 26 19 13 17 19 11 9 7 14 15 21 25 29 19 13 17 9 12 20 18 22 18 25 24 22 23 25 25 25 24 16 19 21
15 15 15 16 17 19 19 20 20 21 22 23 24 26 25 14 9 13 15 16 10 10 9 14 15 16 20 16 25 24 21 21 17 21 22 24 23 23 22 21 25 23 25 21 22 17 14
16 17 18 17 18 18 18 18 19 20 22 23 24 25 27 14 7 14 4 12 12 8 5 9 5 5 7 10 12 26 26 24 22 25 25 26 27 22 25 25 22 25 24 23 22 20 18
18 18 18 18 18 18 18 17 17 18 20 21 23 23 24 21 12 9 11 7 9 4 5 2 5 1 2 11 15 5 25 29 25 25 19 30 26 25 29 24 23 25 21 22 21 23 22
18 18 17 16 16 16 16 16 15 15 17 19 21 22 22 13 8 12 13 3 2 0 7 4 3 7 10 14 16 14 8 27 27 24 25 30 31 25 26 24 24 24 22 25 21 19 19
17 18 17 15 15 14 15 15 15 15 15 16 18 19 18 12 11 12 9 4 4 4 7 9 16 17 17 16 18 13 16 16 18 18 24 29 29 27 22 22 24 22 21 15 16 15 19
17 17 16 14 12 12 13 14 14 14 15 17 16 16 12 11 10 6 8 7 6 13 21 24 24 22 23 22 23 21 21 20 24 28 21 22 26 31 27 26 23 22 22 16 22 17 20
17 17 16 11 11 12 13 14 14 14 14 17 18 13 13 10 8 3 9 9 7 10 11 16 24 23 23 20 20 23 26 26 26 24 27 24 30 22 29 26 24 25 22 26 24 21 15
17 17 15 10 10 12 13 13 13 13 13 16 13 14 12 5 4 4 8 15 13 11 18 22 23 15 24 26 24 23 25 28 31 28 27 28 29 28 24 29 30 30 22 19 18 24 26
19 17 16 11 11 12 13 13 13 13 13 14 11 9 1 1 5 6 8 8 13 19 20 12 19 25 25 27 27 26 26 29 30 32 27 29 24 28 26 26 27 21 23 19 20 20 18
21 20 20 13 13 13 14 15 14 13 14 12 6 4 4 5 7 7 10 10 14 24 24 24 24 27 25 28 29 28 31 29 40 37 33 28 23 23 33 24 26 28 29 29 12 25 18
21 21 21 17 15 15 14 15 15 14 12 11 7 16 14 12 7 12 21 24 29 26 24 24 24 25 25 29 29 29 29 37 39 35 32 22 22 21 26 29 23 29 31 26 23 17 25
22 22 19 21 16 16 17 16 17 14 11 12 7 4 7 17 24 20 21 24 25 28 28 29 25 26 26 28 28 24 33 32 40 41 47 23 23 24 21 27 24 26 30 29 25 16 23
25 25 20 20 21 20 18 18 17 17 14 14 9 9 16 10 14 20 20 19 22 25 27 28 23 25 25 27 28 28 32 31 34 35 30 25 27 27 29 34 32 31 30 29 29 31 24
24 23 19 21 23 24 20 19 18 18 15 20 11 6 14 25 30 26 22 25 28 29 26 27 26 27 24 25 24 30 30 29 29 17 12 19 23 27 32 33 34 35 31 31 31 34 32
26 22 23 21 21 23 22 21 21 19 15 21 22 23 22 21 26 20 21 28 27 28 28 25 23 23 25 25 33 37 40 45 32 18 21 14 16 25 28 33 30 30 33 30 31 29 30
26 27 28 26 25 24 24 26 24 21 21 21 25 22 16 15 18 23 28 32 30 30 28 33 33 23 39 33 30 34 39 41 38 29 25 21 23 19 20 27 33 21 29 33 28 24 28
26 29 27 26 26 26 26 26 26 24 23 25 24 24 13 12 23 25 26 24 38 35 26 32 39 34 34 30 15 12 16 26 30 26 23 21 19 10 18 23 22 27 28 29 28 30 26
30 29 29 30 29 27 27 27 27 26 26 27 28 23 23 13 21 33 29 34 23 18 21 33 33 26 30 7 8 20 14 19 23 28 28 27 24 18 16 24 28 22 26 25 20 22 27
29 31 30 29 28 28 27 27 28 27 26 28 32 22 26 13 42 39 20 20 29 18 11 20 21 14 13 5 9 19 21 23 22 21 14 19 16 19 17 17 18 24 21 31 26 19 23
30 29 29 29 27 27 28 27 27 28 28 27 32 25 27 24 43 37 31 32 30 24 13 19 11 12 5 10 9 9 13 18 14 23 22 11 12 11 18 19 15 11 10 14 9 10 12
28 29 28 29 29 30 29 29 27 27 27 28 32 29 28 31 32 18 30 35 34 36 32 23 11 15 4 5 6 5 13 13 20 5 18 7 4 3 9 13 5 10 12 7 1 4 6
Wind_Direction
26 19 11 4 356 352 350 347 344 342 339 336 333 327 324 321 318 316 317 318 318 320 322 321 325 326 322 267 259 278 254 235 258 207 208 211 220 225 235 239 234 225 264 263 272 269 247
28 25 21 19 14 7 1 358 353 348 345 344 342 340 338 330 319 312 310 311 311 312 315 317 319 321 315 263 265 265 256 254 246 210 212 213 220 227 244 253 240 233 250 267 259 251 227
26 23 28 25 20 13 7 1 359 357 354 351 348 347 347 341 335 327 317 306 306 304 305 309 311 313 283 257 277 267 292 248 216 215 211 215 220 232 238 258 241 248 255 251 244 238 234
24 17 19 19 15 10 8 7 3 359 355 352 350 353 352 345 340 339 334 317 303 303 299 302 300 307 273 277 267 245 245 267 248 219 213 217 222 239 237 256 246 225 238 249 228 219 216
16 15 14 10 8 6 5 6 2 359 357 354 349 351 354 351 345 345 342 332 316 302 294 289 306 286 275 285 281 291 244 238 242 202 211 221 221 230 233 236 233 224 236 229 254 216 209
6 4 2 0 359 358 359 357 357 357 355 351 348 349 356 353 347 347 353 343 335 316 309 288 265 265 250 258 282 265 252 213 216 206 211 209 211 223 231 217 228 229 222 243 234 193 212
360 359 357 355 353 352 352 352 353 352 353 351 346 348 357 357 352 352 357 10 348 211 324 268 286 268 281 277 303 268 227 201 202 210 212 209 216 219 221 227 234 248 240 231 232 233 184
354 354 352 350 349 347 347 347 348 349 349 350 346 346 355 10 17 16 20 61 42 328 304 278 257 255 257 263 277 248 224 203 206 216 209 220 227 226 234 243 237 249 256 258 226 242 231
348 344 342 344 344 342 344 343 345 345 346 347 346 347 350 14 27 21 27 36 360 322 273 288 249 253 253 241 241 249 214 216 218 220 214 223 224 241 254 237 251 240 248 250 256 250 228
341 339 338 337 336 336 337 337 342 342 343 343 345 349 349 18 18 3 355 352 350 335 276 271 216 288 237 238 266 247 232 215 224 233 226 234 233 231 219 242 239 245 234 251 258 249 250
335 335 331 331 333 332 332 332 337 338 340 339 340 347 355 12 340 353 315 325 334 340 318 85 152 255 227 208 312 252 223 210 232 226 238 242 234 233 243 231 231 247 244 252 250 259 260
329 328 327 327 328 328 328 327 329 329 332 331 333 340 347 354 344 321 316 293 330 254 245 235 231 235 220 230 248 274 265 226 236 244 242 246 250 233 244 231 236 240 242 246 236 237 251
320 321 321 318 324 327 330 326 326 327 327 324 327 331 338 345 314 338 319 293 229 176 300 263 261 252 258 261 277 233 253 224 226 230 238 244 239 249 229 251 234 231 230 232 232 230 243
315 318 320 323 328 329 330 327 325 325 325 322 325 324 324 311 301 338 321 235 204 241 255 278 287 282 276 283 282 274 265 254 228 240 248 238 242 227 235 228 239 224 227 233 227 229 236
318 319 321 322 329 331 330 326 324 323 324 328 338 326 314 296 289 287 250 222 227 250 281 315 322 302 281 262 255 266 272 269 254 236 239 249 253 237 221 220 228 229 225 229 243 259 259
318 327 324 316 316 321 327 327 324 320 321 329 335 323 304 274 240 219 235 238 248 274 321 316 295 286 282 282 274 260 255 260 265 254 251 240 262 255 250 213 216 237 218 223 230 238 251
318 313 313 300 302 309 310 315 318 319 317 320 323 308 196 229 193 221 227 238 285 286 300 295 289 279 273 276 271 269 267 265 259 259 254 256 237 252 251 231 215 221 233 224 228 229 244
307 314 311 296 291 295 304 303 307 311 312 322 279 260 188 177 228 225 240 256 279 277 277 276 276 282 272 271 280 276 262 260 259 262 250 252 246 245 244 248 217 234 220 230 216 230 233
303 306 309 300 287 282 295 300 298 298 309 302 264 263 255 244 252 251 263 267 265 274 275 278 278 272 269 268 268 262 265 269 267 265 261 251 246 237 243 239 227 219 237 222 231 227 233
298 302 300 302 282 280 280 292 295 293 289 284 270 272 248 230 246 265 273 274 278 277 279 278 272 273 270 260 257 261 272 255 263 256 266 261 248 239 232 236 227 221 232 235 218 231 233
295 299 291 294 298 280 273 278 287 292 269 275 246 247 253 268 249 243 251 262 274 280 280 278 274 265 261 266 260 254 263 261 264 274 276 263 249 253 244 237 237 227 219 230 236 225 226
294 300 300 290 289 294 268 277 277 282 269 261 264 259 263 265 272 270 268 269 275 278 278 272 265 277 269 266 273 262 255 251 255 281 341 293 245 241 246 241 235 245 227 213 230 234 226
295 285 289 290 298 289 275 274 270 264 273 264 265 267 266 269 272 269 266 271 272 276 274 267 272 280 278 270 262 259 259 264 259 272 289 290 280 231 232 239 233 235 238 234 221 233 232
284 281 288 284 291 287 282 275 272 266 260 263 264 272 270 268 266 264 263 265 270 271 273 275 278 266 266 284 282 278 273 267 269 243 262 269 277 277 224 231 232 236 231 238 237 228 233
282 289 290 287 287 289 280 278 273 269 264 264 268 262 267 263 261 269 269 265 264 269 267 269 269 272 289 281 277 258 251 246 252 238 244 251 261 274 239 233 237 224 226 231 229 237 227
288 288 288 288 284 283 283 279 275 273 265 266 267 266 265 273 267 278 270 266 267 272 279 274 276 285 300 257 244 246 253 220 224 233 236 246 244 253 250 226 227 223 216 234 227 242 236
289 286 284 284 282 278 282 280 277 272 270 274 268 266 266 260 276 273 257 259 264 270 271 285 291 290 266 258 235 240 237 243 218 214 217 212 228 233 231 250 216 231 219 210 218 238 219
285 288 283 285 286 284 281 283 278 275 270 276 269 269 263 263 277 260 247 248 261 261 269 282 288 266 248 250 218 228 218 215 230 234 217 204 203 211 225 225 221 210 138 197 223 230 240
286 286 284 285 282 283 280 282 278 274 271 277 273 275 278 267 266 258 248 252 255 261 268 272 259 275 254 298 246 253 236 214 202 223 227 203 211 283 233 206 44 17 358 67 193 186 197
Height
1572 1570 1568 1566 1564 1562 1560 1558 1556 1554 1552 1549 1546 1544 1542 1539 1536 1534 1531 1528 1527 1526 1524 1521 1519 1517 1516 1516 1511 1509 1508 1507 1509 1510 1513 1514 1515 1513 1508 1504 1501 1500 1499 1496 1498 1500 1500
1573 1571 1569 1567 1565 1563 1561 1558 1556 1553 1551 1548 1545 1543 1540 1537 1534 1532 1530 1527 1524 1522 1521 1519 1518 1516 1515 1515 1509 1507 1505 1505 1506 1507 1510 1512 1511 1511 1507 1502 1500 1499 1502 1498 1498 1498 1499
1573 1572 1570 1568 1565 1563 1561 1558 1556 1553 1550 1547 1544 1541 1539 1535 1531 1528 1526 1523 1522 1520 1519 1517 1516 1514 1512 1509 1507 1506 1504 1504 1505 1505 1507 1509 1511 1510 1509 1504 1502 1502 1502 1499 1497 1495 1495
1574 1572 1570 1568 1566 1564 1562 1559 1557 1554 1550 1547 1543 1541 1537 1533 1529 1525 1522 1519 1518 1516 1515 1514 1513 1512 1508 1503 1502 1503 1504 1504 1503 1504 1506 1507 1509 1508 1507 1502 1500 1500 1500 1502 1487 1490 1492
1575 1572 1570 1568 1566 1564 1562 1559 1555 1552 1550 1547 1543 1540 1537 1532 1528 1524 1520 1516 1514 1512 1511 1511 1511 1512 1505 1501 1500 1500 1499 1502 1503 1503 1504 1505 1506 1507 1505 1503 1500 1495 1501 1496 1488 1478 1484
1575 1573 1571 1568 1566 1563 1560 1558 1555 1552 1548 1545 1541 1538 1535 1531 1526 1521 1518 1513 1511 1510 1509 1509 1509 1513 1501 1500 1499 1499 1498 1499 1502 1503 1504 1505 1504 1501 1497 1494 1500 1493 1491 1487 1482 1476 1479
1575 1574 1571 1568 1566 1563 1561 1558 1555 1551 1548 1544 1540 1537 1535 1531 1527 1522 1516 1514 1516 1513 1511 1509 1506 1502 1499 1499 1497 1496 1497 1499 1501 1502 1498 1499 1498 1491 1486 1484 1483 1479 1475 1474 1471 1464 1481
1574 1572 1570 1568 1565 1563 1560 1558 1555 1551 1548 1544 1540 1536 1533 1531 1528 1524 1522 1521 1527 1527 1513 1502 1498 1497 1493 1497 1496 1494 1497 1498 1496 1494 1497 1496 1488 1483 1483 1481 1481 1478 1475 1469 1462 1461 1466
1574 1572 1569 1567 1564 1562 1559 1557 1554 1551 1547 1544 1540 1536 1533 1531 1529 1528 1527 1528 1528 1526 1519 1494 1491 1489 1489 1491 1488 1485 1489 1490 1487 1489 1486 1486 1482 1487 1484 1482 1482 1478 1478 1473 1471 1463 1462
1572 1570 1568 1566 1563 1561 1558 1556 1553 1550 1547 1543 1540 1536 1532 1532 1533 1529 1531 1527 1526 1524 1511 1483 1485 1484 1484 1485 1483 1479 1479 1484 1483 1479 1480 1476 1478 1477 1483 1483 1479 1483 1473 1472 1472 1473 1479
1571 1569 1566 1564 1562 1559 1557 1555 1553 1550 1546 1542 1538 1536 1534 1531 1534 1534 1532 1527 1526 1526 1524 1480 1479 1483 1483 1483 1476 1469 1472 1476 1471 1473 1478 1462 1469 1471 1473 1471 1476 1474 1475 1474 1475 1473 1470
1569 1567 1565 1563 1560 1558 1556 1554 1552 1550 1546 1542 1538 1536 1534 1535 1535 1534 1529 1526 1527 1524 1526 1479 1476 1475 1476 1476 1475 1473 1473 1472 1473 1471 1466 1459 1461 1461 1462 1463 1468 1471 1473 1470 1467 1471 1478
1567 1564 1562 1560 1558 1556 1555 1553 1551 1549 1545 1542 1539 1536 1534 1533 1535 1530 1528 1528 1519 1531 1485 1477 1468 1465 1466 1467 1465 1465 1468 1469 1472 1476 1469 1458 1456 1457 1460 1462 1462 1464 1471 1482 1485 1481 1474
1563 1561 1560 1558 1556 1554 1552 1551 1549 1546 1544 1541 1539 1536 1534 1534 1532 1529 1531 1526 1526 1492 1483 1473 1468 1464 1465 1465 1465 1461 1459 1463 1459 1463 1457 1459 1462 1447 1452 1456 1461 1460 1464 1472 1486 1472 1463
1560 1558 1556 1555 1554 1552 1550 1549 1547 1545 1542 1540 1537 1538 1534 1533 1531 1529 1533 1519 1500 1483 1477 1476 1475 1470 1462 1458 1464 1461 1460 1456 1450 1447 1461 1456 1445 1435 1439 1446 1456 1452 1459 1447 1464 1456 1457
1557 1556 1553 1553 1552 1550 1549 1547 1546 1544 1541 1540 1539 1537 1532 1529 1531 1533 1529 1505 1493 1491 1490 1495 1493 1481 1474 1462 1457 1453 1454 1450 1445 1443 1440 1442 1449 1433 1428 1435 1441 1445 1441 1462 1452 1478 1471
1554 1552 1550 1549 1549 1547 1546 1545 1544 1542 1540 1538 1538 1535 1528 1531 1531 1532 1521 1505 1499 1501 1506 1504 1495 1488 1479 1473 1462 1453 1448 1444 1442 1438 1436 1433 1439 1435 1429 1425 1431 1441 1440 1436 1442 1447 1456
1549 1548 1546 1545 1545 1545 1543 1542 1541 1540 1538 1537 1537 1535 1527 1529 1532 1525 1514 1510 1505 1502 1507 1505 1502 1493 1485 1479 1470 1458 1448 1440 1441 1433 1431 1425 1428 1429 1426 1413 1418 1425 1427 1428 1440 1449 1439
1545 1543 1542 1541 1540 1540 1540 1539 1538 1538 1537 1537 1534 1529 1527 1528 1521 1510 1503 1498 1496 1493 1495 1495 1493 1489 1486 1480 1469 1463 1453 1446 1439 1431 1423 1419 1420 1432 1426 1417 1409 1416 1413 1417 1422 1429 1434
1540 1538 1537 1537 1535 1535 1535 1536 1535 1535 1535 1535 1533 1525 1520 1520 1515 1511 1503 1493 1488 1490 1488 1489 1485 1484 1478 1470 1465 1464 1455 1443 1439 1432 1422 1418 1413 1408 1414 1408 1402 1417 1416 1412 1416 1430 1422
1534 1533 1532 1531 1530 1530 1530 1530 1531 1531 1532 1532 1527 1518 1516 1509 1503 1503 1500 1495 1489 1483 1485 1483 1475 1472 1472 1465 1460 1458 1457 1442 1436 1429 1420 1412 1409 1406 1396 1397 1393 1393 1403 1408 1410 1401 1421
1529 1528 1526 1525 1525 1524 1523 1524 1525 1525 1526 1525 1520 1517 1512 1504 1499 1495 1491 1487 1482 1477 1479 1473 1474 1469 1469 1466 1467 1451 1451 1442 1432 1419 1424 1406 1400 1401 1398 1387 1388 1387 1382 1391 1398 1392 1398
1523 1521 1520 1519 1518 1518 1517 1517 1518 1518 1520 1516 1513 1511 1510 1499 1493 1489 1482 1479 1475 1474 1472 1472 1470 1467 1462 1457 1454 1453 1448 1438 1431 1435 1431 1433 1411 1393 1394 1381 1382 1384 1377 1374 1378 1385 1385
1516 1514 1513 1512 1512 1510 1510 1510 1510 1510 1511 1510 1508 1508 1503 1491 1486 1475 1472 1470 1466 1461 1458 1458 1460 1459 1448 1454 1450 1443 1438 1429 1423 1427 1432 1427 1424 1397 1380 1373 1388 1368 1362 1364 1369 1373 1376
1508 1507 1506 1505 1504 1503 1502 1501 1501 1502 1502 1501 1501 1501 1492 1482 1475 1468 1463 1460 1460 1454 1451 1450 1445 1446 1446 1445 1443 1432 1421 1419 1404 1406 1419 1423 1418 1401 1376 1368 1365 1357 1356 1362 1363 1365 1364
1500 1499 1498 1497 1496 1495 1494 1493 1492 1492 1493 1492 1490 1492 1489 1480 1461 1464 1460 1458 1449 1443 1443 1438 1438 1439 1441 1436 1432 1420 1408 1391 1391 1403 1402 1401 1404 1399 1373 1366 1368 1349 1347 1352 1355 1361 1358
1492 1491 1489 1488 1487 1486 1485 1484 1483 1483 1483 1483 1479 1483 1480 1470 1453 1461 1451 1446 1443 1444 1441 1438 1437 1434 1434 1426 1414 1401 1385 1379 1379 1381 1381 1385 1388 1385 1376 1362 1344 1339 1340 1345 1362 1359 1351
1483 1482 1481 1480 1479 1477 1476 1475 1474 1473 1473 1473 1469 1472 1471 1459 1446 1446 1441 1441 1439 1438 1437 1434 1434 1426 1422 1413 1397 1392 1371 1365 1376 1363 1369 1379 1375 1371 1367 1362 1358 1335 1342 1350 1349 1349 1349
1475 1473 1472 1471 1469 1468 1467 1466 1465 1464 1464 1463 1458 1459 1459 1452 1439 1434 1431 1431 1432 1431 1434 1431 1427 1423 1416 1411 1382 1378 1363 1352 1360 1371 1348 1363 1370 1357 1353 1350 1351 1351 1353 1354 1354 1351 1352